OH6GKW Weather Reports


time (UTC)temp
C
wind
direction
speed
KPH
gust
KPH
rain 1hr
cm
rain 24hr
cm
rain mn
cm
humidity
%
barometer
mb
20260906091333 8 340 6.4 0.0 0.00 0.00 0.00 77 1006.5
20260906090848 8 322 4.8 0.0 0.00 0.00 0.00 77 1006.5
20260906090342 8 347 3.2 0.0 0.00 0.00 0.00 75 1006.5
20260906085836 8 315 3.2 0.0 0.00 0.00 0.00 75 1006.4
20260906085351 8 4 3.2 0.0 0.00 0.00 0.00 74 1006.4
20260906084842 8 320 3.2 0.0 0.00 0.00 0.00 74 1006.4
20260906084334 8 5 3.2 0.0 0.00 0.00 0.00 75 1006.2
20260906083846 8 346 3.2 0.0 0.00 0.00 0.00 75 1006.2
20260906083343 8 8 1.6 0.0 0.00 0.00 0.00 78 1006.2
20260906082832 8 4 3.2 0.0 0.00 0.00 0.00 77 1005.9
20260906082355 8 12 3.2 0.0 0.00 0.00 0.00 76 1005.9
20260906081846 8 354 3.2 0.0 0.00 0.00 0.00 76 1005.9
20260906081339 8 1 4.8 0.0 0.00 0.00 0.00 76 1005.9
20260906080847 8 306 4.8 0.0 0.00 0.00 0.00 74 1005.9
20260906080344 8 333 3.2 0.0 0.00 0.00 0.00 72 1005.9
20260906075833 8 34 3.2 0.0 0.00 0.00 0.00 73 1005.7
20260906075341 8 21 4.8 0.0 0.00 0.00 0.00 73 1005.7
20260906074833 8 22 6.4 0.0 0.00 0.00 0.00 75 1005.7
20260906074337 8 350 4.8 0.0 0.00 0.00 0.00 74 1005.6
20260906073850 8 343 4.8 0.0 0.00 0.00 0.00 75 1005.6
20260906073342 8 331 4.8 0.0 0.00 0.00 0.00 75 1005.6
20260906072849 8 323 4.8 0.0 0.00 0.00 0.00 76 1005.4
20260906071846 8 313 6.4 0.0 0.00 0.00 0.00 75 1005.4
20260906071338 8 344 4.8 0.0 0.00 0.00 0.00 75 1005.1
20260906070848 8 22 3.2 0.0 0.00 0.00 0.00 78 1005.1
20260906070343 8 5 3.2 0.0 0.00 0.00 0.00 80 1005.1
20260906065832 8 346 3.2 0.0 0.00 0.00 0.00 79 1004.8
20260906065356 8 12 3.2 0.0 0.00 0.00 0.00 80 1004.8
20260906064850 8 45 3.2 0.0 0.00 0.00 0.00 79 1004.8
20260906064349 8 1 3.2 0.0 0.00 0.00 0.00 79 1004.7
20260906063840 8 292 3.2 0.0 0.00 0.00 0.00 80 1004.7
20260906063334 8 38 4.8 0.0 0.00 0.00 0.00 80 1004.7
20260906062840 8 344 4.8 0.0 0.00 0.00 0.00 79 1004.5
20260906062333 8 4 4.8 0.0 0.00 0.00 0.00 80 1004.5
20260906061832 8 300 1.6 0.0 0.00 0.00 0.00 80 1004.5
20260906061345 8 14 1.6 0.0 0.00 0.00 0.00 80 1004.3
20260906060838 8 63 1.6 0.0 0.00 0.00 0.00 80 1004.3
20260906060335 8 307 1.6 0.0 0.00 0.00 0.00 80 1004.3
20260906055857 8 353 3.2 0.0 0.00 0.00 0.00 79 1004.2
20260906055350 8 3 3.2 0.0 0.00 0.00 0.00 78 1004.2
20260906054842 8 343 1.6 0.0 0.00 0.00 0.00 78 1004.2
20260906054337 8 329 1.6 0.0 0.00 0.00 0.00 77 1004.1
20260906053844 8 358 3.2 0.0 0.00 0.00 0.00 77 1004.1
20260906053342 8 357 4.8 0.0 0.00 0.00 0.00 78 1004.1
20260906052833 8 333 4.8 0.0 0.00 0.00 0.00 77 1004.0
20260906052345 8 315 3.2 0.0 0.00 0.00 0.00 78 1004.0
20260906051837 8 334 3.2 0.0 0.00 0.00 0.00 78 1004.0
20260906051332 8 360 1.6 0.0 0.00 0.00 0.00 80 1003.8
20260906050855 8 55 3.2 0.0 0.00 0.00 0.00 80 1003.8
20260906050350 8 330 3.2 0.0 0.00 0.00 0.00 80 1003.8
20260906045843 8 24 3.2 0.0 0.00 0.00 0.00 79 1003.7
20260906045340 8 334 1.6 0.0 0.00 0.00 0.00 82 1003.7
20260906044847 8 340 3.2 0.0 0.00 0.00 0.00 81 1003.7
20260906044343 8 41 3.2 0.0 0.00 0.00 0.00 81 1003.6
20260906043835 8 323 3.2 0.0 0.00 0.00 0.00 80 1003.6
20260906043350 8 18 3.2 0.0 0.00 0.00 0.00 79 1003.6
20260906042839 8 337 1.6 0.0 0.00 0.00 0.00 78 1003.4
20260906042335 8 333 1.6 0.0 0.00 0.00 0.00 78 1003.4
20260906041827 8 58 1.6 0.0 0.00 0.00 0.00 78 1003.4
20260906041356 8 333 1.6 0.0 0.00 0.00 0.00 78 1003.3
20260906040850 8 32 3.2 0.0 0.00 0.00 0.00 78 1003.3
20260906040345 8 360 3.2 0.0 0.00 0.00 0.00 78 1003.3
20260906035829 8 351 3.2 0.0 0.00 0.00 0.00 79 1003.2
20260906035342 8 8 1.6 0.0 0.00 0.00 0.00 81 1003.2
20260906034834 8 17 1.6 0.0 0.00 0.00 0.00 80 1003.2
20260906034331 8 65 1.6 0.0 0.00 0.00 0.00 79 1003.1
20260906033855 8 344 1.6 0.0 0.00 0.00 0.00 79 1003.1
20260906033353 8 312 1.6 0.0 0.00 0.00 0.00 79 1003.1
20260906032846 8 21 3.2 0.0 0.00 0.00 0.00 79 1003.0
20260906032345 8 339 3.2 0.0 0.00 0.00 0.00 79 1003.0
20260906031839 8 353 3.2 0.0 0.00 0.00 0.00 80 1003.0
20260906031331 8 355 1.6 0.0 0.00 0.00 0.00 78 1002.7
20260906030839 8 353 3.2 0.0 0.00 0.00 0.00 78 1002.7
20260906030337 8 11 3.2 0.0 0.00 0.00 0.00 79 1002.7
20260906025848 8 15 3.2 0.0 0.00 0.00 0.00 79 1002.7
20260906025340 8 320 3.2 0.0 0.00 0.00 0.00 79 1002.7
20260906024831 8 343 1.6 0.0 0.00 0.00 0.00 79 1002.7
20260906024356 8 357 1.6 0.0 0.00 0.00 0.00 79 1002.5
20260906023847 8 315 1.6 0.0 0.00 0.00 0.00 79 1002.5
20260906023343 8 346 3.2 0.0 0.00 0.00 0.00 79 1002.5
20260906022833 9 343 4.8 0.0 0.00 0.00 0.00 78 1002.3
20260906022348 9 337 4.8 0.0 0.00 0.00 0.00 78 1002.3
20260906021834 9 302 4.8 0.0 0.00 0.00 0.00 79 1002.3
20260906021331 9 340 1.6 0.0 0.00 0.00 0.00 80 1002.2
20260906020843 9 5 1.6 0.0 0.00 0.00 0.00 80 1002.2
20260906020350 9 8 1.6 0.0 0.00 0.00 0.00 80 1002.2
20260906015842 9 354 4.8 0.0 0.00 0.00 0.00 80 1002.0
20260906015334 9 10 4.8 0.0 0.00 0.00 0.00 79 1002.0
20260906014830 9 351 1.6 0.0 0.00 0.00 0.00 79 1002.0
20260906014326 9 354 1.6 0.0 0.00 0.00 0.00 81 1001.9
20260906013842 9 324 1.6 0.0 0.00 0.00 0.00 80 1001.9
20260906013337 9 8 1.6 0.0 0.00 0.00 0.00 80 1001.9
20260906012827 10 347 3.2 0.0 0.00 0.00 0.00 80 1001.7
20260906012338 10 346 3.2 0.0 0.00 0.00 0.00 80 1001.7
20260906011830 10 350 3.2 0.0 0.00 0.00 0.00 80 1001.7
20260906011354 10 11 3.2 0.0 0.00 0.00 0.00 80 1001.7
20260906010850 9 329 1.6 0.0 0.00 0.00 0.00 80 1001.7
20260906010345 9 29 0.0 0.0 0.00 0.00 0.00 82 1001.7
20260906005835 9 4 0.0 0.0 0.00 0.00 0.00 82 1001.6
20260906005348 9 15 0.0 0.0 0.00 0.00 0.00 82 1001.6
20260906004847 9 8 1.6 0.0 0.00 0.00 0.00 82 1001.6
20260906004339 9 353 1.6 0.0 0.00 0.00 0.00 82 1001.5
20260906003831 9 353 0.0 0.0 0.00 0.00 0.00 83 1001.5
20260906003342 9 348 1.6 0.0 0.00 0.00 0.00 82 1001.5
20260906002832 9 347 1.6 0.0 0.00 0.00 0.00 79 1001.3
20260906002340 9 333 1.6 0.0 0.00 0.00 0.00 82 1001.3
20260906001831 9 14 1.6 0.0 0.00 0.00 0.00 82 1001.3
20260906001343 9 327 0.0 0.0 0.00 0.00 0.00 83 1001.2
20260906000835 9 17 1.6 0.0 0.00 0.00 0.00 83 1001.2
20260906000330 9 344 1.6 0.0 0.00 0.00 0.00 82 1001.2
20260905235843 9 354 1.6 0.0 0.00 0.00 0.00 82 1001.2
20260905235337 9 3 1.6 0.0 0.00 0.00 0.00 81 1001.2
20260905234829 9 329 1.6 0.0 0.00 0.00 0.00 82 1001.2
20260905234350 9 323 1.6 0.0 0.00 0.00 0.00 83 1001.2
20260905233842 9 329 1.6 0.0 0.00 0.00 0.00 84 1001.2
20260905233344 9 343 1.6 0.0 0.00 0.00 0.00 84 1001.2
20260905232839 10 327 1.6 0.0 0.00 0.00 0.00 85 1001.2
20260905232335 10 292 0.0 0.0 0.00 0.00 0.00 84 1001.2
20260905231832 10 330 0.0 0.0 0.00 0.00 0.00 84 1001.2
20260905231332 10 358 1.6 0.0 0.00 0.00 0.00 85 1001.1
20260905230848 10 4 3.2 0.0 0.00 0.00 0.00 85 1001.1
20260905230346 10 329 4.8 0.0 0.00 0.00 0.00 84 1001.1
20260905225836 10 312 3.2 0.0 0.00 0.00 0.00 84 1001.1
20260905225356 10 327 3.2 0.0 0.00 0.00 0.00 84 1001.1
20260905224847 10 327 1.6 0.0 0.00 0.00 0.00 84 1001.1
20260905224343 10 347 1.6 0.0 0.00 0.00 0.00 85 1001.0
20260905223854 10 322 1.6 0.0 0.00 0.00 0.00 86 1001.0
20260905223349 10 12 1.6 0.0 0.00 0.00 0.00 86 1001.0
20260905222843 10 317 0.0 0.0 0.00 0.00 0.00 85 1000.9
20260905222340 10 22 1.6 0.0 0.00 0.00 0.00 84 1000.9
20260905221831 10 331 1.6 0.0 0.00 0.00 0.00 85 1000.9
20260905221345 10 327 1.6 0.0 0.00 0.00 0.00 85 1000.8
20260905220843 10 339 0.0 0.0 0.00 0.00 0.00 87 1000.8
20260905220338 10 354 1.6 0.0 0.00 0.00 0.00 88 1000.8
20260905215856 10 354 1.6 0.0 0.00 0.00 0.00 88 1000.6
20260905215351 10 334 1.6 0.0 0.00 0.00 0.00 89 1000.6
20260905214843 10 21 1.6 0.0 0.00 0.00 0.00 90 1000.6
20260905214338 10 1 0.0 0.0 0.00 0.00 0.00 90 1000.5
20260905213829 10 309 0.0 0.0 0.00 0.00 0.00 90 1000.5
20260905213346 10 320 1.6 0.0 0.00 0.00 0.00 89 1000.5
20260905212839 10 4 1.6 0.0 0.00 0.00 0.00 89 1000.5
20260905212332 10 309 1.6 0.0 0.00 0.00 0.00 89 1000.5
20260905211833 10 14 3.2 0.0 0.00 0.00 0.00 89 1000.5
20260905211347 10 350 1.6 0.0 0.00 0.00 0.00 89 1000.3
20260905210834 10 21 0.0 0.0 0.00 0.00 0.00 91 1000.3
20260905210341 10 8 0.0 0.0 0.00 0.00 0.00 92 1000.3
20260905205847 10 31 0.0 0.0 0.00 0.00 0.48 92 1000.2
20260905205340 10 31 0.0 0.0 0.00 0.00 0.48 92 1000.2
20260905204833 10 31 0.0 0.0 0.00 0.00 0.48 92 1000.2
20260905204346 10 339 0.0 0.0 0.00 0.00 0.48 93 1000.1
20260905203837 10 38 0.0 0.0 0.00 0.00 0.48 93 1000.1
20260905203332 9 343 0.0 0.0 0.00 0.00 0.48 94 1000.1
20260905202854 9 5 0.0 0.0 0.00 0.00 0.48 95 999.8
20260905202351 9 10 0.0 0.0 0.00 0.00 0.48 97 999.8
20260905201842 9 53 0.0 0.0 0.00 0.00 0.48 98 999.8
20260905201338 9 53 0.0 0.0 0.00 0.00 0.48 98 999.7
20260905200830 9 53 0.0 0.0 0.00 0.00 0.48 98 999.7
20260905200346 9 53 0.0 0.0 0.00 0.00 0.48 97 999.7
20260905195836 9 53 0.0 0.0 0.00 0.00 0.48 97 999.7
20260905195329 9 53 0.0 0.0 0.00 0.00 0.48 97 999.7
20260905194841 9 55 0.0 0.0 0.00 0.00 0.48 97 999.7
20260905194334 9 29 0.0 0.0 0.00 0.00 0.48 97 999.6
20260905193858 9 329 0.0 0.0 0.00 0.00 0.48 97 999.6
20260905193333 9 347 0.0 0.0 0.00 0.00 0.48 98 999.6
20260905192838 9 18 0.0 0.0 0.00 0.00 0.48 98 999.7
20260905192335 9 18 0.0 0.0 0.00 0.00 0.48 98 999.7
20260905191831 9 35 1.6 0.0 0.00 0.00 0.48 98 999.7
20260905191347 9 28 0.0 0.0 0.00 0.00 0.48 98 999.6
20260905190839 9 66 0.0 0.0 0.00 0.00 0.48 98 999.6
20260905190334 9 55 0.0 0.0 0.00 0.00 0.48 98 999.6
20260905185855 9 53 0.0 0.0 0.00 0.00 0.48 98 999.5
20260905185352 9 360 0.0 0.0 0.00 0.00 0.48 98 999.5
20260905184844 9 360 0.0 0.0 0.00 0.00 0.48 98 999.5
20260905184341 9 360 0.0 0.0 0.00 0.00 0.48 98 999.5
20260905183832 9 11 0.0 0.0 0.00 0.00 0.48 98 999.5
20260905183343 9 65 0.0 0.0 0.00 0.00 0.48 98 999.5
20260905182838 9 100 0.0 0.0 0.00 0.00 0.48 98 999.4
20260905182334 9 39 0.0 0.0 0.00 0.00 0.48 98 999.4
20260905181846 9 351 0.0 0.0 0.00 0.00 0.48 98 999.4
20260905181339 9 43 0.0 0.0 0.00 0.00 0.48 98 999.2
20260905180831 9 55 0.0 0.0 0.00 0.00 0.48 98 999.2
20260905180341 9 55 0.0 0.0 0.00 0.00 0.48 98 999.2
20260905175829 9 55 0.0 0.0 0.00 0.00 0.48 98 999.1
20260905175341 9 14 1.6 0.0 0.00 0.00 0.48 98 999.1
20260905174836 9 31 1.6 0.0 0.00 0.00 0.48 98 999.1
20260905174343 9 350 0.0 0.0 0.00 0.00 0.46 98 999.0
20260905173834 9 39 0.0 0.0 0.00 0.00 0.46 98 999.0
20260905173401 9 36 0.0 0.0 0.00 0.00 0.46 98 999.0
20260905172851 9 18 0.0 0.0 0.00 0.00 0.46 98 998.8
20260905172344 9 357 0.0 0.0 0.00 0.00 0.46 98 998.8
20260905171836 9 357 0.0 0.0 0.00 0.00 0.46 98 998.8
20260905171348 9 58 0.0 0.0 0.00 0.00 0.46 98 998.6
20260905170839 9 55 0.0 0.0 0.00 0.00 0.46 98 998.6
20260905170335 9 46 0.0 0.0 0.00 0.00 0.46 98 998.6
20260905165844 9 346 0.0 0.0 0.00 0.00 0.46 98 998.4
20260905165337 9 4 0.0 0.0 0.00 0.00 0.46 98 998.4
20260905164829 9 336 0.0 0.0 0.00 0.00 0.46 98 998.4
20260905164354 9 29 0.0 0.0 0.00 0.00 0.46 98 998.4
20260905163846 9 29 0.0 0.0 0.00 0.00 0.46 98 998.4
20260905163343 9 43 0.0 0.0 0.00 0.00 0.46 98 998.4
20260905162832 9 35 0.0 0.0 0.00 0.00 0.46 98 998.4
20260905162346 9 12 0.0 0.0 0.00 0.00 0.46 98 998.4
20260905161833 9 34 0.0 0.0 0.00 0.00 0.46 98 998.4
20260905161347 9 348 0.0 0.0 0.00 0.00 0.46 98 998.2
20260905160834 9 15 0.0 0.0 0.00 0.00 0.46 98 998.2
20260905160332 9 5 0.0 0.0 0.00 0.00 0.46 98 998.2
20260905155857 9 5 0.0 0.0 0.00 0.00 0.46 98 998.1
20260905155352 9 5 1.6 0.0 0.00 0.00 0.46 98 998.1
20260905154844 9 343 1.6 0.0 0.00 0.00 0.46 98 998.1
20260905154336 9 357 1.6 0.0 0.00 0.00 0.46 98 997.9
20260905153828 10 326 0.0 0.0 0.00 0.00 0.46 98 997.9
20260905153347 10 123 0.0 0.0 0.00 0.00 0.46 98 997.9
20260905152836 10 27 1.6 0.0 0.00 0.00 0.46 98 997.7
20260905152400 10 8 1.6 0.0 0.00 0.00 0.43 98 997.7
20260905151840 10 34 0.0 0.0 0.00 0.00 0.43 98 997.7
20260905151331 10 58 0.0 0.0 0.00 0.00 0.43 98 997.6
20260905150854 10 32 0.0 0.0 0.00 0.00 0.43 98 997.6
20260905150356 10 49 0.0 0.0 0.00 0.00 0.43 98 997.6
20260905145850 10 8 1.6 0.0 0.00 0.00 0.43 98 997.5
20260905145342 10 28 1.6 0.0 0.00 0.00 0.43 98 997.5
20260905144834 10 343 1.6 0.0 0.00 0.00 0.43 98 997.5
20260905144348 10 32 1.6 0.0 0.00 0.00 0.43 98 997.3
20260905143839 10 293 0.0 0.0 0.00 0.00 0.43 98 997.3
20260905143333 10 27 0.0 0.0 0.00 0.00 0.43 98 997.3
20260905142839 10 17 0.0 0.0 0.00 0.00 0.43 98 997.2
20260905142335 10 346 0.0 0.0 0.00 0.00 0.43 98 997.2
20260905141859 10 343 0.0 0.0 0.00 0.00 0.43 98 997.2
20260905141352 10 29 0.0 0.0 0.00 0.00 0.43 98 997.1
20260905140843 10 18 0.0 0.0 0.00 0.00 0.43 98 997.1
20260905140338 10 28 1.6 0.0 0.00 0.00 0.43 98 997.1
20260905135831 10 298 0.0 0.0 0.00 0.00 0.43 98 996.9
20260905135344 10 340 1.6 0.0 0.00 0.00 0.43 98 996.9
20260905134836 10 344 1.6 0.0 0.00 0.00 0.43 98 996.9
20260905134329 10 12 1.6 0.0 0.00 0.00 0.41 98 996.8
20260905133851 10 31 1.6 0.0 0.00 0.00 0.41 98 996.8
20260905133346 10 8 1.6 0.0 0.00 0.00 0.41 98 996.8
20260905132837 10 8 1.6 0.0 0.00 0.00 0.41 98 996.7
20260905132333 10 77 1.6 0.0 0.00 0.00 0.41 98 996.7
20260905131847 10 67 1.6 0.0 0.00 0.00 0.41 98 996.7
20260905131347 10 336 1.6 0.0 0.00 0.00 0.41 98 996.5
20260905130839 10 35 0.0 0.0 0.00 0.00 0.41 98 996.5
20260905130334 10 159 0.0 0.0 0.00 0.00 0.41 98 996.5
20260905125856 10 193 0.0 0.0 0.00 0.00 0.41 98 996.4
20260905125351 10 317 0.0 0.0 0.00 0.00 0.41 98 996.4
20260905124843 10 348 1.6 0.0 0.00 0.00 0.41 98 996.4
20260905124332 10 22 1.6 0.0 0.00 0.00 0.41 98 996.4
20260905123842 10 285 0.0 0.0 0.00 0.00 0.41 98 996.4
20260905123337 10 27 0.0 0.0 0.00 0.00 0.41 98 996.4
20260905122847 10 358 0.0 0.0 0.00 0.00 0.41 98 996.3
20260905122340 10 27 1.6 0.0 0.00 0.00 0.41 98 996.3
20260905121832 10 75 0.0 0.0 0.00 0.00 0.41 98 996.3
20260905121356 10 25 1.6 0.0 0.00 0.00 0.41 98 996.1
20260905120854 10 358 1.6 0.0 0.00 0.00 0.41 98 996.1
20260905120353 10 4 1.6 0.0 0.00 0.00 0.41 98 996.1
20260905115842 10 34 1.6 0.0 0.00 0.00 0.41 98 995.9
20260905115331 10 320 0.0 0.0 0.00 0.00 0.41 98 995.9
20260905114846 10 350 1.6 0.0 0.00 0.00 0.41 98 995.9
20260905114339 10 21 1.6 0.0 0.00 0.00 0.41 98 995.8
20260905113834 10 15 1.6 0.0 0.00 0.00 0.41 98 995.8
20260905113329 10 353 0.0 0.0 0.00 0.00 0.41 98 995.8
20260905112853 10 347 0.0 0.0 0.00 0.00 0.41 98 995.6
20260905112348 10 55 1.6 0.0 0.00 0.00 0.38 98 995.6
20260905111844 10 59 1.6 0.0 0.00 0.00 0.38 98 995.6
20260905111335 10 63 1.6 0.0 0.00 0.00 0.38 98 995.4
20260905110832 10 52 0.0 0.0 0.00 0.00 0.38 98 995.4
20260905110346 11 27 1.6 0.0 0.00 0.00 0.38 98 995.4
20260905105835 11 28 1.6 0.0 0.00 0.00 0.38 98 995.2
20260905105349 11 353 1.6 0.0 0.00 0.00 0.38 97 995.2
20260905104840 11 19 0.0 0.0 0.00 0.00 0.38 98 995.2
20260905104336 11 344 1.6 0.0 0.00 0.00 0.38 98 994.9
20260905103853 11 35 1.6 0.0 0.00 0.00 0.38 98 994.9
20260905103348 11 4 3.2 0.0 0.00 0.00 0.38 98 994.9
20260905102838 11 15 1.6 0.0 0.00 0.00 0.38 98 994.8
20260905102331 11 274 1.6 0.0 0.00 0.00 0.38 98 994.8
20260905101847 11 28 0.0 0.0 0.00 0.00 0.38 98 994.8
20260905101341 11 41 1.6 0.0 0.00 0.00 0.38 98 994.7
20260905100832 11 35 1.6 0.0 0.00 0.00 0.38 98 994.7
20260905100348 11 31 1.6 0.0 0.00 0.00 0.38 98 994.7
20260905095838 11 25 1.6 0.0 0.00 0.00 0.38 98 994.4
20260905095330 11 80 1.6 0.0 0.00 0.00 0.38 98 994.4
20260905094834 11 27 1.6 0.0 0.00 0.00 0.38 98 994.4
20260905094329 11 17 0.0 0.0 0.00 0.00 0.38 98 994.3
20260905093844 11 63 0.0 0.0 0.00 0.00 0.38 98 994.3
20260905093342 11 11 1.6 0.0 0.00 0.00 0.38 98 994.3
20260905092831 11 39 0.0 0.0 0.00 0.00 0.38 98 994.2
20260905092331 11 17 0.0 0.0 0.00 0.00 0.38 98 994.2
20260905091841 11 357 1.6 0.0 0.00 0.00 0.38 98 994.2